| time (UTC) | temp C | wind direction | speed KPH | gust KPH | rain 1hr cm | rain 24hr cm | rain mn cm | humidity % | barometer mb |
| 20260506170046 | 17 | 107 | 0.0 | 0.0 | 0.00 | 0.00 | 0.00 | 66 | 1020.3 |
| 20260506164550 | 17 | 209 | 0.0 | 0.0 | 0.00 | 0.00 | 0.00 | 66 | 1020.3 |
| 20260506163034 | 16 | 172 | 0.0 | 0.0 | 0.00 | 0.00 | 0.00 | 61 | 1020.4 |
| 20260506161527 | 15 | 174 | 0.0 | 0.0 | 0.00 | 0.00 | 0.00 | 50 | 1020.4 |
| 20260506160025 | 13 | 188 | 0.0 | 0.0 | 0.00 | 0.00 | 0.00 | 40 | 1020.5 |
| 20260506154518 | 13 | 190 | 0.0 | 0.0 | 0.00 | 0.00 | 0.00 | 28 | 1020.4 |
| 20260506153013 | 12 | 197 | 0.0 | 0.0 | 0.00 | 0.00 | 0.00 | 26 | 1020.3 |
| 20260506151511 | 12 | 280 | 0.0 | 0.0 | 0.00 | 0.00 | 0.00 | 13 | 1020.3 |
| 20260506150005 | 12 | 305 | 0.0 | 0.0 | 0.00 | 0.00 | 0.00 | 2 | 1020.2 |
| 20260506144605 | 11 | 305 | 0.0 | 0.0 | 0.00 | 0.00 | 0.00 | 1 | 1020.1 |
| 20260506143056 | 11 | 305 | 0.0 | 0.0 | 0.00 | 0.00 | 0.00 | 1 | 1020.0 |
| 20260506141551 | 11 | 244 | 0.0 | 0.0 | 0.00 | 0.00 | 0.00 | 1 | 1019.9 |
| 20260506140047 | 11 | 244 | 0.0 | 0.0 | 0.00 | 0.00 | 0.00 | 1 | 1019.8 |
| 20260506134543 | 11 | 244 | 0.0 | 0.0 | 0.00 | 0.00 | 0.00 | 1 | 1019.6 |
| 20260506133049 | 11 | 244 | 0.0 | 0.0 | 0.00 | 0.00 | 0.00 | 1 | 1019.6 |
| 20260506131534 | 11 | 244 | 0.0 | 0.0 | 0.00 | 0.00 | 0.00 | 1 | 1019.5 |
| 20260506130030 | 11 | 244 | 0.0 | 0.0 | 0.00 | 0.00 | 0.00 | 2 | 1019.5 |
| 20260506124525 | 11 | 244 | 0.0 | 0.0 | 0.00 | 0.00 | 0.00 | 3 | 1019.4 |
| 20260506123021 | 11 | 244 | 0.0 | 0.0 | 0.00 | 0.00 | 0.00 | 3 | 1019.3 |
| 20260506121516 | 11 | 244 | 0.0 | 0.0 | 0.00 | 0.00 | 0.00 | 2 | 1019.2 |
| 20260506120025 | 11 | 244 | 0.0 | 0.0 | 0.00 | 0.00 | 0.00 | 2 | 1019.2 |
| 20260506114508 | 10 | 244 | 0.0 | 0.0 | 0.00 | 0.03 | 0.00 | 3 | 1019.1 |
| 20260506113003 | 10 | 244 | 0.0 | 0.0 | 0.00 | 0.03 | 0.00 | 5 | 1018.9 |
| 20260506111559 | 10 | 244 | 0.0 | 0.0 | 0.00 | 0.03 | 0.00 | 5 | 1018.9 |
| 20260506110111 | 10 | 244 | 0.0 | 0.0 | 0.00 | 0.03 | 0.00 | 3 | 1018.8 |
| 20260506104603 | 10 | 244 | 0.0 | 0.0 | 0.00 | 0.10 | 0.00 | 1 | 1018.6 |
| 20260506103048 | 10 | 244 | 0.0 | 0.0 | 0.00 | 0.10 | 0.00 | 1 | 1018.6 |
| 20260506101541 | 10 | 244 | 0.0 | 0.0 | 0.00 | 0.10 | 0.00 | 2 | 1018.6 |
| 20260506100039 | 10 | 244 | 0.0 | 0.0 | 0.00 | 0.10 | 0.00 | 3 | 1018.6 |
| 20260506094534 | 10 | 244 | 0.0 | 0.0 | 0.00 | 0.23 | 0.00 | 4 | 1018.5 |
| 20260506093031 | 10 | 244 | 0.0 | 0.0 | 0.00 | 0.23 | 0.00 | 5 | 1018.5 |
| 20260506091525 | 10 | 244 | 0.0 | 0.0 | 0.00 | 0.23 | 0.00 | 3 | 1018.6 |
| 20260506090020 | 10 | 263 | 0.0 | 0.0 | 0.00 | 0.23 | 0.00 | 2 | 1018.6 |
| 20260506084534 | 10 | 263 | 0.0 | 0.0 | 0.00 | 0.38 | 0.00 | 4 | 1018.6 |
| 20260506083012 | 10 | 263 | 0.0 | 0.0 | 0.00 | 0.38 | 0.00 | 6 | 1018.6 |
| 20260506081507 | 10 | 243 | 0.0 | 0.0 | 0.00 | 0.38 | 0.00 | 8 | 1018.5 |
| 20260506073054 | 10 | 235 | 0.0 | 0.0 | 0.00 | 0.51 | 0.00 | 11 | 1018.2 |
| 20260506071551 | 10 | 288 | 0.0 | 0.0 | 0.00 | 0.51 | 0.00 | 14 | 1018.1 |
| 20260506061537 | 10 | 238 | 0.0 | 0.0 | 0.00 | 0.64 | 0.51 | 33 | 1017.7 |
| 20260506044513 | 10 | 207 | 0.0 | 4.8 | 0.00 | 0.86 | 0.51 | 36 | 1017.1 |
| 20260506043004 | 10 | 217 | 0.0 | 6.4 | 0.00 | 0.86 | 0.51 | 36 | 1016.8 |
| 20260506041609 | 10 | 229 | 0.0 | 6.4 | 0.00 | 0.86 | 0.51 | 32 | 1016.7 |
| 20260506040056 | 10 | 203 | 1.6 | 8.0 | 0.00 | 0.86 | 0.51 | 35 | 1016.5 |
| 20260506034554 | 10 | 224 | 0.0 | 0.0 | 0.00 | 0.99 | 0.51 | 32 | 1016.4 |
| 20260506033046 | 10 | 273 | 0.0 | 0.0 | 0.00 | 0.99 | 0.51 | 29 | 1016.2 |
| 20260506031544 | 10 | 207 | 0.0 | 9.7 | 0.00 | 0.99 | 0.51 | 32 | 1015.8 |
| 20260506030040 | 10 | 195 | 0.0 | 4.8 | 0.00 | 0.99 | 0.51 | 39 | 1015.7 |
| 20260506024537 | 11 | 226 | 0.0 | 11.3 | 0.00 | 1.12 | 0.51 | 41 | 1015.6 |
| 20260506023048 | 11 | 217 | 1.6 | 9.7 | 0.00 | 1.12 | 0.51 | 41 | 1015.5 |
| 20260506021536 | 11 | 201 | 1.6 | 8.0 | 0.00 | 1.12 | 0.51 | 47 | 1015.4 |
| 20260506020025 | 11 | 207 | 0.0 | 12.9 | 0.00 | 1.12 | 0.51 | 53 | 1015.3 |
| 20260506014518 | 12 | 197 | 0.0 | 0.0 | 0.00 | 1.24 | 0.51 | 53 | 1015.2 |
| 20260506013014 | 12 | 202 | 0.0 | 11.3 | 0.00 | 1.24 | 0.51 | 54 | 1015.1 |
| 20260506011507 | 12 | 206 | 0.0 | 9.7 | 0.00 | 1.24 | 0.51 | 60 | 1015.0 |
| 20260506010002 | 13 | 199 | 1.6 | 11.3 | 0.00 | 1.24 | 0.51 | 61 | 1015.0 |
| 20260506004558 | 13 | 206 | 0.0 | 14.5 | 0.00 | 1.40 | 0.51 | 62 | 1014.9 |
| 20260506003056 | 13 | 201 | 1.6 | 9.7 | 0.00 | 1.40 | 0.51 | 63 | 1014.9 |
| 20260506001553 | 14 | 198 | 1.6 | 9.7 | 0.00 | 1.40 | 0.51 | 63 | 1014.8 |
| 20260506000048 | 15 | 251 | 1.6 | 9.7 | 0.00 | 1.40 | 0.51 | 64 | 1014.8 |
| 20260505234541 | 15 | 194 | 3.2 | 14.5 | 0.00 | 1.55 | 0.51 | 66 | 1014.8 |
| 20260505233037 | 16 | 226 | 3.2 | 9.7 | 0.00 | 1.55 | 0.51 | 67 | 1014.7 |
| 20260505231546 | 16 | 206 | 1.6 | 12.9 | 0.00 | 1.55 | 0.51 | 67 | 1014.7 |
| 20260505230027 | 17 | 205 | 0.0 | 9.7 | 0.00 | 1.55 | 0.51 | 67 | 1014.7 |
| 20260505224523 | 17 | 194 | 1.6 | 9.7 | 0.00 | 1.63 | 0.51 | 66 | 1014.8 |
| 20260505223019 | 16 | 201 | 0.0 | 9.7 | 0.00 | 1.63 | 0.51 | 66 | 1014.9 |
| 20260505221514 | 16 | 201 | 0.0 | 14.5 | 0.00 | 1.63 | 0.51 | 62 | 1015.0 |
| 20260505220009 | 16 | 199 | 4.8 | 17.7 | 0.00 | 1.63 | 0.51 | 65 | 1015.0 |
| 20260505214505 | 16 | 209 | 0.0 | 9.7 | 0.00 | 1.63 | 0.51 | 64 | 1015.1 |
| 20260505213059 | 16 | 201 | 0.0 | 8.0 | 0.00 | 1.63 | 0.51 | 60 | 1015.2 |
| 20260505211555 | 15 | 193 | 0.0 | 6.4 | 0.00 | 1.63 | 0.51 | 56 | 1015.3 |
| 20260505210051 | 15 | 206 | 0.0 | 8.0 | 0.00 | 1.63 | 0.51 | 56 | 1015.4 |
| 20260505204546 | 15 | 203 | 0.0 | 8.0 | 0.00 | 1.63 | 0.51 | 52 | 1015.4 |
| 20260505203058 | 14 | 197 | 0.0 | 9.7 | 0.00 | 1.63 | 0.51 | 51 | 1015.4 |
| 20260505201543 | 14 | 195 | 0.0 | 6.4 | 0.00 | 1.63 | 0.51 | 51 | 1015.5 |
| 20260505200033 | 14 | 203 | 0.0 | 1.6 | 0.00 | 1.63 | 0.51 | 53 | 1015.6 |
| 20260505194528 | 14 | 215 | 0.0 | 0.0 | 0.00 | 1.63 | 0.51 | 51 | 1015.4 |
| 20260505193031 | 14 | 205 | 0.0 | 6.4 | 0.00 | 1.63 | 0.51 | 56 | 1015.6 |
| 20260505191520 | 14 | 201 | 0.0 | 0.0 | 0.00 | 1.63 | 0.51 | 46 | 1015.5 |
| 20260505190015 | 14 | 214 | 0.0 | 0.0 | 0.00 | 1.63 | 0.51 | 48 | 1015.5 |
| 20260505184511 | 14 | 259 | 0.0 | 0.0 | 0.00 | 1.63 | 0.51 | 49 | 1015.5 |
| 20260505183012 | 13 | 172 | 0.0 | 0.0 | 0.00 | 1.63 | 0.51 | 41 | 1015.6 |
| 20260505181502 | 13 | 170 | 0.0 | 0.0 | 0.00 | 1.63 | 0.51 | 24 | 1015.4 |
| 20260505174555 | 12 | 189 | 0.0 | 0.0 | 0.00 | 1.63 | 0.51 | 23 | 1015.3 |
| 20260505173055 | 12 | 204 | 0.0 | 4.8 | 0.00 | 1.63 | 0.51 | 7 | 1015.1 |
| 20260505171547 | 12 | 168 | 0.0 | 0.0 | 0.00 | 1.63 | 0.51 | 1 | 1015.0 |